Renton, WA
on Saturday, January 5, 2013

Saturday
Previous Day Next Day
Daily Summary
 ActualAverage (KSEA)Record (KSEA)
Temperature
Mean Temperature °F 41°F  
Max Temperature 45°F 46°F 55°F (2006)
Min Temperature 39°F 36°F 15°F (1982)
Degree Days
Heating Degree Days 23 24  
Month to date heating degree days 120  
Since 1 July heating degree days 2058  
Cooling Degree Days 0 0  
Month to date cooling degree days 0  
Year to date cooling degree days 0  
Moisture
Dew Point 36°F   
Average Humidity 80    
Maximum Humidity 100    
Minimum Humidity 60    
Precipitation
Precipitation 0.08 in 0.18 in 1.33 in (2006)
Month to date precipitation 0.92  
Year to date precipitation 0.92  
Snow
Snow 0.00 in in 2.00 in (1959)
Month to date snowfall  
Since 1 July snowfall  
Snow Depth in   
Wind
Wind Speed 3 mph   
Max Wind Speed 7 mph   
Max Gust Speed mph   
Visibility 8 miles   
Events Rain   

Key: T is trace of precipitation, MM is missing value
Source: NWS Daily Summary
Time(PST)TemperatureDew PointHumidity Pressure Visibility Wind DirectionWind SpeedGust SpeedPrecipitationEvents Conditions
12:53 AM 41.0°F 39.0°F 93% 30.17 in 10.0 miles Calm Calm - N/A   Overcast
1:53 AM 41.0°F 39.0°F 93% 30.18 in 10.0 miles Calm Calm - N/A   Mostly Cloudy
2:53 AM 41.0°F 37.9°F 89% 30.19 in 10.0 miles South 5.8 mph - N/A   Overcast
3:53 AM 39.9°F 37.9°F 93% 30.19 in 10.0 miles South 6.9 mph - N/A   Mostly Cloudy
4:53 AM 41.0°F 37.0°F 86% 30.18 in 10.0 miles SSE 3.5 mph - N/A   Overcast
5:53 AM 41.0°F 37.9°F 89% 30.19 in 10.0 miles ESE 4.6 mph - N/A   Overcast
6:53 AM 44.1°F 30.9°F 60% 30.19 in 10.0 miles SSE 4.6 mph - N/A   Overcast
7:53 AM 43.0°F 34.0°F 71% 30.19 in 10.0 miles South 4.6 mph - N/A   Overcast
8:53 AM 44.1°F 30.9°F 60% 30.20 in 10.0 miles ESE 6.9 mph - N/A   Overcast
9:53 AM 44.1°F 32.0°F 63% 30.22 in 10.0 miles Calm Calm - 0.00 in Rain Light Rain
10:53 AM 44.1°F 34.0°F 68% 30.22 in 10.0 miles SSE 3.5 mph - 0.00 in   Overcast
11:53 AM 44.1°F 36.0°F 73% 30.20 in 10.0 miles ESE 5.8 mph - 0.00 in   Mostly Cloudy
12:53 PM 43.0°F 36.0°F 76% 30.19 in 10.0 miles Variable 6.9 mph - N/A   Overcast
1:53 PM 44.1°F 35.1°F 71% 30.17 in 10.0 miles SSE 6.9 mph - N/A   Mostly Cloudy
2:53 PM 45.0°F 34.0°F 65% 30.15 in 10.0 miles SSE 6.9 mph - N/A   Overcast
3:53 PM 44.1°F 34.0°F 68% 30.15 in 10.0 miles SSE 3.5 mph - N/A   Overcast
4:53 PM 44.1°F 34.0°F 68% 30.14 in 10.0 miles SE 3.5 mph - N/A   Mostly Cloudy
5:53 PM 42.1°F 33.1°F 70% 30.14 in 10.0 miles SE 3.5 mph - N/A   Scattered Clouds
6:53 PM 43.0°F 32.0°F 65% 30.15 in 10.0 miles SSE 4.6 mph - N/A   Overcast
7:53 PM 43.0°F 30.9°F 62% 30.14 in 10.0 miles SSE 6.9 mph - N/A   Overcast
8:53 PM 42.1°F 34.0°F 73% 30.15 in 10.0 miles ESE 3.5 mph - 0.00 in Rain Light Rain
9:15 PM 39.2°F 37.4°F 93% 30.14 in 7.0 miles Calm Calm - 0.01 in Rain Light Rain
9:53 PM 39.9°F 37.9°F 93% 30.16 in 4.0 miles Calm Calm - 0.03 in Rain Light Rain
10:19 PM 41.0°F 39.2°F 93% 30.15 in 2.5 miles Calm Calm - 0.03 in Rain Light Rain
10:34 PM 41.0°F 39.2°F 93% 30.14 in 3.0 miles ESE 4.6 mph - 0.04 in Rain Light Rain
10:53 PM 41.0°F 39.0°F 93% 30.17 in 5.0 miles ESE 3.5 mph - 0.05 in Rain Light Rain
11:10 PM 39.2°F 39.2°F 100% 30.15 in 6.0 miles East 5.8 mph - 0.00 in   Overcast
11:32 PM 39.2°F 37.4°F 93% 30.16 in 10.0 miles ESE 4.6 mph - 0.00 in   Overcast
11:51 PM 39.2°F 37.4°F 93% 30.16 in 3.0 miles East 5.8 mph - 0.00 in   Overcast
11:53 PM 39.0°F 37.9°F 96% 30.17 in 3.0 miles East 4.6 mph - 0.00 in   Overcast
Moon Phase
Jan. 05 Jan. 11 Jan. 18 Jan. 26 Feb. 03
Sunrise:07:56 AM (PST) Moon Rise:12:54 AM (PST)1/5
Sunset:04:33 PM (PST) Moon Set:11:38 AM (PST)1/5

Copyright © 2014 The Weather Underground, Inc.